This is the latest recevied weather packets stored in our database for station/object N9EA. If no packets are shown the sender has not sent any weather packets the latest 10 day(s).
| Time | Temp. | Humidity | Pressure | Rain* | Wind** | Luminosity | Snow |
|---|---|---|---|---|---|---|---|
| 1777496205 | 16.11° C | 36% | 1015 hPa | 0 mm | - | 561 W/m² | - |
| 1777495901 | 16.11° C | 37% | 1015.2 hPa | 0 mm | - | 566 W/m² | - |
| 1777495598 | 16.11° C | 35% | 1015 hPa | 0 mm | - | 520 W/m² | - |
| 1777495294 | 16.67° C | 36% | 1015.3 hPa | 0 mm | - | 570 W/m² | - |
| 1777494992 | 16.11° C | 37% | 1015.2 hPa | 0 mm | - | 488 W/m² | - |
| 1777494689 | 15.56° C | 36% | 1015.3 hPa | 0 mm | - | 636 W/m² | - |
| 1777494386 | 15.56° C | 36% | 1015.4 hPa | 0 mm | - | 564 W/m² | - |
| 1777494082 | 15.56° C | 37% | 1015.3 hPa | 0 mm | - | 154 W/m² | - |
| 1777493780 | 15° C | 38% | 1015.4 hPa | 0 mm | - | 636 W/m² | - |
| 1777493478 | 15.56° C | 37% | 1015.6 hPa | 0 mm | - | 154 W/m² | - |
| 1777493174 | 16.11° C | 36% | 1015.5 hPa | 0 mm | - | 652 W/m² | - |
| 1777492870 | 15.56° C | 37% | 1015.5 hPa | 0 mm | - | 648 W/m² | - |
| 1777492567 | 15° C | 39% | 1015.6 hPa | 0 mm | - | 299 W/m² | - |
| 1777492262 | 14.44° C | 39% | 1015.8 hPa | 0 mm | - | 141 W/m² | - |
| 1777491960 | 15° C | 39% | 1016.1 hPa | 0 mm | - | 135 W/m² | - |
| 1777491655 | 15.56° C | 37% | 1015.6 hPa | 0 mm | - | 700 W/m² | - |
| 1777491354 | 15.56° C | 37% | 1015.6 hPa | 0 mm | - | 735 W/m² | - |
| 1777491050 | 15.56° C | 36% | 1015.8 hPa | 0 mm | - | 718 W/m² | - |
| 1777490740 | 15.56° C | 37% | 1015.6 hPa | 0 mm | - | 769 W/m² | - |
| 1777490438 | 15.56° C | 38% | 1015.5 hPa | 0 mm | - | 791 W/m² | - |
| 1777490134 | 15.56° C | 37% | 1015.7 hPa | 0 mm | - | 744 W/m² | - |
| 1777489831 | 15° C | 39% | 1015.8 hPa | 0 mm | - | 755 W/m² | - |
| 1777489529 | 15.56° C | 37% | 1015.8 hPa | 0 mm | - | 392 W/m² | - |
| 1777489225 | 15° C | 38% | 1015.6 hPa | 0 mm | - | 764 W/m² | - |
| 1777488922 | 15.56° C | 37% | 1015.5 hPa | 0 mm | - | 787 W/m² | - |
* Rain latest hour (hover to see other rain measurements)
** Current wind speed in m/s (hover to see current wind gust speed)